Year,Month,Day,Hour,Minute,Value (Times are PST for temperature in C)
2018,08,07,00,00,16.80
2018,08,07,00,01,16.80
2018,08,07,00,02,16.70
2018,08,07,00,03,16.70
2018,08,07,00,04,16.60
2018,08,07,00,05,16.60
2018,08,07,00,06,16.60
2018,08,07,00,07,16.50
2018,08,07,00,08,16.50
2018,08,07,00,09,16.50
2018,08,07,00,10,16.50
2018,08,07,00,11,16.50
2018,08,07,00,12,16.50
2018,08,07,00,13,16.40
2018,08,07,00,14,16.50
2018,08,07,00,15,16.50
2018,08,07,00,16,16.50
2018,08,07,00,17,16.50
2018,08,07,00,18,16.50
2018,08,07,00,19,16.50
2018,08,07,00,20,16.60
2018,08,07,00,21,16.60
2018,08,07,00,22,16.60
2018,08,07,00,23,16.60
2018,08,07,00,24,16.60
2018,08,07,00,25,16.60
2018,08,07,00,26,16.60
2018,08,07,00,27,16.70
2018,08,07,00,28,16.70
2018,08,07,00,29,16.70
2018,08,07,00,30,16.80
2018,08,07,00,31,16.80
2018,08,07,00,32,16.80
2018,08,07,00,33,16.80
2018,08,07,00,34,16.80
2018,08,07,00,35,16.80
2018,08,07,00,36,16.80
2018,08,07,00,37,16.90
2018,08,07,00,38,16.90
2018,08,07,00,39,16.90
2018,08,07,00,40,16.90
2018,08,07,00,41,16.90
2018,08,07,00,42,16.90
2018,08,07,00,43,16.90
2018,08,07,00,44,16.90
2018,08,07,00,45,16.90
2018,08,07,00,46,16.90
2018,08,07,00,47,16.90
2018,08,07,00,48,16.90
2018,08,07,00,49,16.90
2018,08,07,00,50,16.90
2018,08,07,00,51,16.90
2018,08,07,00,52,16.90
2018,08,07,00,53,16.90
2018,08,07,00,54,16.80
2018,08,07,00,55,16.80
2018,08,07,00,56,16.80
2018,08,07,00,57,16.70
2018,08,07,00,58,16.70
2018,08,07,00,59,16.70
2018,08,07,01,00,16.60
2018,08,07,01,01,16.60
2018,08,07,01,02,16.60
2018,08,07,01,03,16.60
2018,08,07,01,04,16.50
2018,08,07,01,05,16.50
2018,08,07,01,06,16.50
2018,08,07,01,07,16.50
2018,08,07,01,08,16.50
2018,08,07,01,09,16.40
2018,08,07,01,10,16.40
2018,08,07,01,11,16.40
2018,08,07,01,12,16.40
2018,08,07,01,13,16.40
2018,08,07,01,14,16.40
2018,08,07,01,15,16.40
2018,08,07,01,16,16.40
2018,08,07,01,17,16.40
2018,08,07,01,18,16.40
2018,08,07,01,19,16.30
2018,08,07,01,20,16.30
2018,08,07,01,21,16.30
2018,08,07,01,22,16.30
2018,08,07,01,23,16.30
2018,08,07,01,24,16.30
2018,08,07,01,25,16.30
2018,08,07,01,26,16.30
2018,08,07,01,27,16.30
2018,08,07,01,28,16.30
2018,08,07,01,29,16.30
2018,08,07,01,30,16.30
2018,08,07,01,31,16.20
2018,08,07,01,32,16.20
2018,08,07,01,33,16.20
2018,08,07,01,34,16.20
2018,08,07,01,35,16.20
2018,08,07,01,36,16.20
2018,08,07,01,37,16.20
2018,08,07,01,38,16.10
2018,08,07,01,39,16.10
2018,08,07,01,40,16.10
2018,08,07,01,41,16.10
2018,08,07,01,42,16.20
2018,08,07,01,43,16.20
2018,08,07,01,44,16.20
2018,08,07,01,45,16.20
2018,08,07,01,46,16.20
2018,08,07,01,47,16.20
2018,08,07,01,48,16.20
2018,08,07,01,49,16.20
2018,08,07,01,50,16.20
2018,08,07,01,51,16.20
2018,08,07,01,52,16.20
2018,08,07,01,53,16.20
2018,08,07,01,54,16.20
2018,08,07,01,55,16.20
2018,08,07,01,56,16.20
2018,08,07,01,57,16.20
2018,08,07,01,58,16.20
2018,08,07,01,59,16.20
2018,08,07,02,00,16.20
2018,08,07,02,01,16.20
2018,08,07,02,02,16.20
2018,08,07,02,03,16.20
2018,08,07,02,04,16.20
2018,08,07,02,05,16.20
2018,08,07,02,06,16.10
2018,08,07,02,07,16.10
2018,08,07,02,08,16.10
2018,08,07,02,09,16.10
2018,08,07,02,10,16.10
2018,08,07,02,11,16.10
2018,08,07,02,12,16.10
2018,08,07,02,13,16.10
2018,08,07,02,14,16.10
2018,08,07,02,15,16.10
2018,08,07,02,16,16.10
2018,08,07,02,17,16.10
2018,08,07,02,18,16.10
2018,08,07,02,19,16.10
2018,08,07,02,20,16.00
2018,08,07,02,21,16.00
2018,08,07,02,22,16.00
2018,08,07,02,23,16.00
2018,08,07,02,24,16.00
2018,08,07,02,25,15.90
2018,08,07,02,26,15.90
2018,08,07,02,27,15.90
2018,08,07,02,28,15.90
2018,08,07,02,29,15.90
2018,08,07,02,30,15.90
2018,08,07,02,31,15.90
2018,08,07,02,32,15.90
2018,08,07,02,33,15.80
2018,08,07,02,34,15.80
2018,08,07,02,35,15.80
2018,08,07,02,36,15.80
2018,08,07,02,37,15.80
2018,08,07,02,38,15.80
2018,08,07,02,39,15.80
2018,08,07,02,40,15.80
2018,08,07,02,41,15.70
2018,08,07,02,42,15.70
2018,08,07,02,43,15.70
2018,08,07,02,44,15.70
2018,08,07,02,45,15.70
2018,08,07,02,46,15.70
2018,08,07,02,47,15.70
2018,08,07,02,48,15.70
2018,08,07,02,49,15.60
2018,08,07,02,50,15.60
2018,08,07,02,51,15.60
2018,08,07,02,52,15.60
2018,08,07,02,53,15.60
2018,08,07,02,54,15.60
2018,08,07,02,55,15.60
2018,08,07,02,56,15.60
2018,08,07,02,57,15.60
2018,08,07,02,58,15.60
2018,08,07,02,59,15.60
2018,08,07,03,00,15.60
2018,08,07,03,01,15.70
2018,08,07,03,02,15.70
2018,08,07,03,03,15.70
2018,08,07,03,04,15.70
2018,08,07,03,05,15.70
2018,08,07,03,06,15.80
2018,08,07,03,07,15.80
2018,08,07,03,08,15.80
2018,08,07,03,09,15.80
2018,08,07,03,10,15.80
2018,08,07,03,11,15.80
2018,08,07,03,12,15.80
2018,08,07,03,13,15.90
2018,08,07,03,14,15.90
2018,08,07,03,15,15.90
2018,08,07,03,16,15.90
2018,08,07,03,17,15.90
2018,08,07,03,18,15.90
2018,08,07,03,19,15.90
2018,08,07,03,20,15.90
2018,08,07,03,21,15.90
2018,08,07,03,22,15.90
2018,08,07,03,23,15.90
2018,08,07,03,24,15.90
2018,08,07,03,25,15.90
2018,08,07,03,26,15.90
2018,08,07,03,27,15.90
2018,08,07,03,28,15.90
2018,08,07,03,29,16.00
2018,08,07,03,30,16.00
2018,08,07,03,31,16.00
2018,08,07,03,32,16.00
2018,08,07,03,33,16.00
2018,08,07,03,34,16.00
2018,08,07,03,35,16.00
2018,08,07,03,36,16.00
2018,08,07,03,37,16.00
2018,08,07,03,38,16.00
2018,08,07,03,39,16.00
2018,08,07,03,40,16.00
2018,08,07,03,41,16.00
2018,08,07,03,42,16.00
2018,08,07,03,43,16.00
2018,08,07,03,44,16.00
2018,08,07,03,45,16.00
2018,08,07,03,46,16.00
2018,08,07,03,47,16.00
2018,08,07,03,48,16.00
2018,08,07,03,49,16.00
2018,08,07,03,50,16.00
2018,08,07,03,51,16.00
2018,08,07,03,52,16.00
2018,08,07,03,53,16.00
2018,08,07,03,54,15.90
2018,08,07,03,55,15.90
2018,08,07,03,56,15.90
2018,08,07,03,57,15.90
2018,08,07,03,58,15.90
2018,08,07,03,59,15.90
2018,08,07,04,00,15.90
2018,08,07,04,01,15.90
2018,08,07,04,02,15.90
2018,08,07,04,03,15.90
2018,08,07,04,04,15.90
2018,08,07,04,05,15.90
2018,08,07,04,06,15.80
2018,08,07,04,07,15.80
2018,08,07,04,08,15.80
2018,08,07,04,09,15.80
2018,08,07,04,10,15.80
2018,08,07,04,11,15.80
2018,08,07,04,12,15.80
2018,08,07,04,13,15.80
2018,08,07,04,14,15.70
2018,08,07,04,15,15.70
2018,08,07,04,16,15.70
2018,08,07,04,17,15.60
2018,08,07,04,18,15.60
2018,08,07,04,19,15.50
2018,08,07,04,20,15.50
2018,08,07,04,21,15.40
2018,08,07,04,22,15.40
2018,08,07,04,23,15.30
2018,08,07,04,24,15.30
2018,08,07,04,25,15.30
2018,08,07,04,26,15.20
2018,08,07,04,27,15.20
2018,08,07,04,28,15.20
2018,08,07,04,29,15.20
2018,08,07,04,30,15.20
2018,08,07,04,31,15.20
2018,08,07,04,32,15.10
2018,08,07,04,33,15.10
2018,08,07,04,34,15.10
2018,08,07,04,35,15.10
2018,08,07,04,36,15.10
2018,08,07,04,37,15.10
2018,08,07,04,38,15.10
2018,08,07,04,39,15.10
2018,08,07,04,40,15.10
2018,08,07,04,41,15.10
2018,08,07,04,42,15.10
2018,08,07,04,43,15.10
2018,08,07,04,44,15.10
2018,08,07,04,45,15.10
2018,08,07,04,46,15.10
2018,08,07,04,47,15.10
2018,08,07,04,48,15.00
2018,08,07,04,49,15.00
2018,08,07,04,50,15.00
2018,08,07,04,51,15.00
2018,08,07,04,52,15.00
2018,08,07,04,53,14.90
2018,08,07,04,54,14.90
2018,08,07,04,55,14.90
2018,08,07,04,56,14.90
2018,08,07,04,57,14.90
2018,08,07,04,58,14.90
2018,08,07,04,59,14.90
2018,08,07,05,00,14.80
2018,08,07,05,01,14.80
2018,08,07,05,02,14.80
2018,08,07,05,03,14.80
2018,08,07,05,04,14.80
2018,08,07,05,05,14.80
2018,08,07,05,06,14.80
2018,08,07,05,07,14.80
2018,08,07,05,08,14.80
2018,08,07,05,09,14.70
2018,08,07,05,10,14.70
2018,08,07,05,11,14.70
2018,08,07,05,12,14.60
2018,08,07,05,13,14.60
2018,08,07,05,14,14.50
2018,08,07,05,15,14.50
2018,08,07,05,16,14.40
2018,08,07,05,17,14.40
2018,08,07,05,18,14.30
2018,08,07,05,19,14.30
2018,08,07,05,20,14.30
2018,08,07,05,21,14.20
2018,08,07,05,22,14.20
2018,08,07,05,23,14.20
2018,08,07,05,24,14.10
2018,08,07,05,25,14.10
2018,08,07,05,26,14.10
2018,08,07,05,27,14.00
2018,08,07,05,28,14.00
2018,08,07,05,29,13.90
2018,08,07,05,30,13.90
2018,08,07,05,31,13.90
2018,08,07,05,32,13.80
2018,08,07,05,33,13.80
2018,08,07,05,34,13.80
2018,08,07,05,35,13.80
2018,08,07,05,36,13.80
2018,08,07,05,37,13.70
2018,08,07,05,38,13.70
2018,08,07,05,39,13.70
2018,08,07,05,40,13.70
2018,08,07,05,41,13.70
2018,08,07,05,42,13.60
2018,08,07,05,43,13.60
2018,08,07,05,44,13.60
2018,08,07,05,45,13.60
2018,08,07,05,46,13.50
2018,08,07,05,47,13.50
2018,08,07,05,48,13.50
2018,08,07,05,49,13.50
2018,08,07,05,50,13.40
2018,08,07,05,51,13.40
2018,08,07,05,52,13.40
2018,08,07,05,53,13.40
2018,08,07,05,54,13.30
2018,08,07,05,55,13.30
2018,08,07,05,56,13.30
2018,08,07,05,57,13.30
2018,08,07,05,58,13.30
2018,08,07,05,59,13.30
2018,08,07,06,00,13.20
2018,08,07,06,01,13.20
2018,08,07,06,02,13.20
2018,08,07,06,03,13.20
2018,08,07,06,04,13.20
2018,08,07,06,05,13.20
2018,08,07,06,06,13.20
2018,08,07,06,07,13.20
2018,08,07,06,08,13.10
2018,08,07,06,09,13.10
2018,08,07,06,10,13.10
2018,08,07,06,11,13.10
2018,08,07,06,12,13.10
2018,08,07,06,13,13.10
2018,08,07,06,14,13.10
2018,08,07,06,15,13.10
2018,08,07,06,16,13.10
2018,08,07,06,17,13.10
2018,08,07,06,18,13.10
2018,08,07,06,19,13.10
2018,08,07,06,20,13.10
2018,08,07,06,21,13.10
2018,08,07,06,22,13.10
2018,08,07,06,23,13.20
2018,08,07,06,24,13.20
2018,08,07,06,25,13.20
2018,08,07,06,26,13.20
2018,08,07,06,27,13.20
2018,08,07,06,28,13.20
2018,08,07,06,29,13.20
2018,08,07,06,30,13.20
2018,08,07,06,31,13.20
2018,08,07,06,32,13.20
2018,08,07,06,33,13.20
2018,08,07,06,34,13.20
2018,08,07,06,35,13.20
2018,08,07,06,36,13.20
2018,08,07,06,37,13.30
2018,08,07,06,38,13.30
2018,08,07,06,39,13.30
2018,08,07,06,40,13.30
2018,08,07,06,41,13.30
2018,08,07,06,42,13.30
2018,08,07,06,43,13.30
2018,08,07,06,44,13.30
2018,08,07,06,45,13.30
2018,08,07,06,46,13.40
2018,08,07,06,47,13.40
2018,08,07,06,48,13.40
2018,08,07,06,49,13.40
2018,08,07,06,50,13.40
2018,08,07,06,51,13.40
2018,08,07,06,52,13.50
2018,08,07,06,53,13.50
2018,08,07,06,54,13.60
2018,08,07,06,55,13.60
2018,08,07,06,56,13.60
2018,08,07,06,57,13.60
2018,08,07,06,58,13.70
2018,08,07,06,59,13.70
2018,08,07,07,00,13.70
2018,08,07,07,01,13.70
2018,08,07,07,02,13.80
2018,08,07,07,03,13.80
2018,08,07,07,04,13.80
2018,08,07,07,05,13.90
2018,08,07,07,06,13.90
2018,08,07,07,07,14.00
2018,08,07,07,08,14.00
2018,08,07,07,09,14.10
2018,08,07,07,10,14.20
2018,08,07,07,11,14.20
2018,08,07,07,12,14.30
2018,08,07,07,13,14.40
2018,08,07,07,14,14.50
2018,08,07,07,15,14.60
2018,08,07,07,16,14.60
2018,08,07,07,17,14.70
2018,08,07,07,18,14.80
2018,08,07,07,19,14.80
2018,08,07,07,20,14.90
2018,08,07,07,21,14.90
2018,08,07,07,22,15.00
2018,08,07,07,23,15.00
2018,08,07,07,24,15.10
2018,08,07,07,25,15.20
2018,08,07,07,26,15.30
2018,08,07,07,27,15.30
2018,08,07,07,28,15.40
2018,08,07,07,29,15.50
2018,08,07,07,30,15.60
2018,08,07,07,31,15.70
2018,08,07,07,32,15.70
2018,08,07,07,33,15.80
2018,08,07,07,34,15.90
2018,08,07,07,35,16.00
2018,08,07,07,36,16.00
2018,08,07,07,37,16.10
2018,08,07,07,38,16.20
2018,08,07,07,39,16.30
2018,08,07,07,40,16.30
2018,08,07,07,41,16.40
2018,08,07,07,42,16.50
2018,08,07,07,43,16.60
2018,08,07,07,44,16.60
2018,08,07,07,45,16.70
2018,08,07,07,46,16.70
2018,08,07,07,47,16.80
2018,08,07,07,48,16.80
2018,08,07,07,49,16.80
2018,08,07,07,50,16.80
2018,08,07,07,51,16.80
2018,08,07,07,52,16.80
2018,08,07,07,53,16.90
2018,08,07,07,54,16.90
2018,08,07,07,55,16.90
2018,08,07,07,56,16.90
2018,08,07,07,57,16.80
2018,08,07,07,58,16.70
2018,08,07,07,59,16.60
2018,08,07,08,00,16.50
2018,08,07,08,01,16.40
2018,08,07,08,02,16.20
2018,08,07,08,03,16.10
2018,08,07,08,04,16.00
2018,08,07,08,05,15.80
2018,08,07,08,06,15.70
2018,08,07,08,07,15.50
2018,08,07,08,08,15.30
2018,08,07,08,09,15.20
2018,08,07,08,10,15.10
2018,08,07,08,11,15.00
2018,08,07,08,12,15.00
2018,08,07,08,13,14.90
2018,08,07,08,14,14.90
2018,08,07,08,15,14.90
2018,08,07,08,16,14.90
2018,08,07,08,17,14.90
2018,08,07,08,18,14.90
2018,08,07,08,19,14.90
2018,08,07,08,20,15.00
2018,08,07,08,21,15.00
2018,08,07,08,22,14.90
2018,08,07,08,23,15.00
2018,08,07,08,24,15.00
2018,08,07,08,25,15.00
2018,08,07,08,26,15.00
2018,08,07,08,27,15.00
2018,08,07,08,28,15.00
2018,08,07,08,29,15.00
2018,08,07,08,30,15.00
2018,08,07,08,31,15.10
2018,08,07,08,32,15.10
2018,08,07,08,33,15.10
2018,08,07,08,34,15.10
2018,08,07,08,35,15.10
2018,08,07,08,36,15.10
2018,08,07,08,37,15.10
2018,08,07,08,38,15.10
2018,08,07,08,39,15.10
2018,08,07,08,40,15.10
2018,08,07,08,41,15.10
2018,08,07,08,42,15.10
2018,08,07,08,43,15.10
2018,08,07,08,44,15.20
2018,08,07,08,45,15.30
2018,08,07,08,46,15.30
2018,08,07,08,47,15.40
2018,08,07,08,48,15.40
2018,08,07,08,49,15.50
2018,08,07,08,50,15.50
2018,08,07,08,51,15.60
2018,08,07,08,52,15.70
2018,08,07,08,53,15.60
2018,08,07,08,54,15.60
2018,08,07,08,55,15.40
2018,08,07,08,56,15.30
2018,08,07,08,57,15.30
2018,08,07,08,58,15.30
2018,08,07,08,59,15.40
2018,08,07,09,00,15.50
2018,08,07,09,01,15.60
2018,08,07,09,02,15.60
2018,08,07,09,03,15.50
2018,08,07,09,04,15.40
2018,08,07,09,05,15.40
2018,08,07,09,06,15.40
2018,08,07,09,07,15.40
2018,08,07,09,08,15.40
2018,08,07,09,09,15.50
2018,08,07,09,10,15.60
2018,08,07,09,11,15.70
2018,08,07,09,12,15.80
2018,08,07,09,13,15.90
2018,08,07,09,14,16.00
2018,08,07,09,15,16.00
2018,08,07,09,16,15.90
2018,08,07,09,17,15.90
2018,08,07,09,18,15.90
2018,08,07,09,19,15.90
2018,08,07,09,20,15.90
2018,08,07,09,21,16.00
2018,08,07,09,22,16.00
2018,08,07,09,23,16.10
2018,08,07,09,24,16.10
2018,08,07,09,25,16.20
2018,08,07,09,26,16.20
2018,08,07,09,27,16.20
2018,08,07,09,28,16.20
2018,08,07,09,29,16.10
2018,08,07,09,30,16.00
2018,08,07,09,31,16.00
2018,08,07,09,32,16.00
2018,08,07,09,33,16.10
2018,08,07,09,34,16.10
2018,08,07,09,35,16.20
2018,08,07,09,36,16.20
2018,08,07,09,37,16.30
2018,08,07,09,38,16.30
2018,08,07,09,39,16.30
2018,08,07,09,40,16.40
2018,08,07,09,41,16.50
2018,08,07,09,42,16.70
2018,08,07,09,43,16.90
2018,08,07,09,44,17.10
2018,08,07,09,45,17.20
2018,08,07,09,46,17.40
2018,08,07,09,47,17.60
2018,08,07,09,48,17.70
2018,08,07,09,49,17.80
2018,08,07,09,50,17.90
2018,08,07,09,51,18.00
2018,08,07,09,52,18.10
2018,08,07,09,53,18.20
2018,08,07,09,54,18.20
2018,08,07,09,55,18.30
2018,08,07,09,56,18.30
2018,08,07,09,57,18.40
2018,08,07,09,58,18.40
2018,08,07,09,59,18.40
2018,08,07,10,00,18.40
2018,08,07,10,01,18.30
2018,08,07,10,02,18.30
2018,08,07,10,03,18.30
2018,08,07,10,04,18.20
2018,08,07,10,05,18.20
2018,08,07,10,06,18.20
2018,08,07,10,07,18.20
2018,08,07,10,08,18.20
2018,08,07,10,09,18.30
2018,08,07,10,10,18.30
2018,08,07,10,11,18.30
2018,08,07,10,12,18.40
2018,08,07,10,13,18.40
2018,08,07,10,14,18.40
2018,08,07,10,15,18.40
2018,08,07,10,16,18.40
2018,08,07,10,17,18.50
2018,08,07,10,18,18.60
2018,08,07,10,19,18.70
2018,08,07,10,20,18.70
2018,08,07,10,21,18.70
2018,08,07,10,22,18.80
2018,08,07,10,23,18.80
2018,08,07,10,24,18.90
2018,08,07,10,25,18.90
2018,08,07,10,26,19.10
2018,08,07,10,27,19.20
2018,08,07,10,28,19.30
2018,08,07,10,29,19.50
2018,08,07,10,30,19.60
2018,08,07,10,31,19.70
2018,08,07,10,32,19.80
2018,08,07,10,33,19.70
2018,08,07,10,34,19.50
2018,08,07,10,35,19.30
2018,08,07,10,36,19.10
2018,08,07,10,37,19.00
2018,08,07,10,38,18.80
2018,08,07,10,39,18.80
2018,08,07,10,40,18.70
2018,08,07,10,41,18.70
2018,08,07,10,42,18.70
2018,08,07,10,43,18.60
2018,08,07,10,44,18.50
2018,08,07,10,45,18.50
2018,08,07,10,46,18.50
2018,08,07,10,47,18.40
2018,08,07,10,48,18.40
2018,08,07,10,49,18.40
2018,08,07,10,50,18.30
2018,08,07,10,51,18.30
2018,08,07,10,52,18.40
2018,08,07,10,53,18.50
2018,08,07,10,54,18.60
2018,08,07,10,55,18.80
2018,08,07,10,56,18.90
2018,08,07,10,57,19.10
2018,08,07,10,58,19.30
2018,08,07,10,59,19.50
2018,08,07,11,00,19.60
2018,08,07,11,01,19.70
2018,08,07,11,02,19.80
2018,08,07,11,03,19.90
2018,08,07,11,04,19.90
2018,08,07,11,05,20.00
2018,08,07,11,06,20.10
2018,08,07,11,07,20.20
2018,08,07,11,08,20.30
2018,08,07,11,09,20.40
2018,08,07,11,10,20.40
2018,08,07,11,11,20.40
2018,08,07,11,12,20.30
2018,08,07,11,13,20.00
2018,08,07,11,14,19.70
2018,08,07,11,15,19.50
2018,08,07,11,16,19.30
2018,08,07,11,17,19.20
2018,08,07,11,18,19.00
2018,08,07,11,19,18.90
2018,08,07,11,20,18.90
2018,08,07,11,21,18.80
2018,08,07,11,22,18.70
2018,08,07,11,23,18.60
2018,08,07,11,24,18.50
2018,08,07,11,25,18.40
2018,08,07,11,26,18.50
2018,08,07,11,27,18.60
2018,08,07,11,28,18.60
2018,08,07,11,29,18.60
2018,08,07,11,30,18.70
2018,08,07,11,31,18.80
2018,08,07,11,32,18.90
2018,08,07,11,33,19.00
2018,08,07,11,34,19.00
2018,08,07,11,35,18.90
2018,08,07,11,36,18.90
2018,08,07,11,37,18.90
2018,08,07,11,38,19.00
2018,08,07,11,39,19.00
2018,08,07,11,40,19.10
2018,08,07,11,41,19.20
2018,08,07,11,42,19.30
2018,08,07,11,43,19.30
2018,08,07,11,44,19.40
2018,08,07,11,45,19.40
2018,08,07,11,46,19.50
2018,08,07,11,47,19.50
2018,08,07,11,48,19.60
2018,08,07,11,49,19.80
2018,08,07,11,50,19.90
2018,08,07,11,51,20.00
2018,08,07,11,52,20.00
2018,08,07,11,53,20.10
2018,08,07,11,54,20.20
2018,08,07,11,55,20.30
2018,08,07,11,56,20.30
2018,08,07,11,57,20.40
2018,08,07,11,58,20.40
2018,08,07,11,59,20.50
2018,08,07,12,00,20.50
2018,08,07,12,01,20.50
2018,08,07,12,02,20.60
2018,08,07,12,03,20.60
2018,08,07,12,04,20.60
2018,08,07,12,05,20.80
2018,08,07,12,06,20.90
2018,08,07,12,07,20.90
2018,08,07,12,08,21.00
2018,08,07,12,09,21.00
2018,08,07,12,10,21.10
2018,08,07,12,11,21.20
2018,08,07,12,12,21.30
2018,08,07,12,13,21.30
2018,08,07,12,14,21.30
2018,08,07,12,15,21.40
2018,08,07,12,16,21.40
2018,08,07,12,17,21.40
2018,08,07,12,18,21.40
2018,08,07,12,19,21.40
2018,08,07,12,20,21.30
2018,08,07,12,21,21.30
2018,08,07,12,22,21.20
2018,08,07,12,23,21.10
2018,08,07,12,24,21.10
2018,08,07,12,25,21.10
2018,08,07,12,26,21.10
2018,08,07,12,27,21.10
2018,08,07,12,28,21.10
2018,08,07,12,29,21.10
2018,08,07,12,30,21.10
2018,08,07,12,31,21.10
2018,08,07,12,32,21.10
2018,08,07,12,33,21.10
2018,08,07,12,34,21.10
2018,08,07,12,35,21.10
2018,08,07,12,36,21.00
2018,08,07,12,37,20.90
2018,08,07,12,38,20.80
2018,08,07,12,39,20.80
2018,08,07,12,40,20.70
2018,08,07,12,41,20.70
2018,08,07,12,42,20.80
2018,08,07,12,43,20.70
2018,08,07,12,44,20.60
2018,08,07,12,45,20.40
2018,08,07,12,46,20.30
2018,08,07,12,47,20.30
2018,08,07,12,48,20.30
2018,08,07,12,49,20.40
2018,08,07,12,50,20.50
2018,08,07,12,51,20.60
2018,08,07,12,52,20.80
2018,08,07,12,53,21.10
2018,08,07,12,54,21.20
2018,08,07,12,55,21.30
2018,08,07,12,56,21.20
2018,08,07,12,57,21.10
2018,08,07,12,58,21.10
2018,08,07,12,59,21.00
2018,08,07,13,00,21.00
2018,08,07,13,01,21.00
2018,08,07,13,02,20.90
2018,08,07,13,03,20.80
2018,08,07,13,04,20.70
2018,08,07,13,05,20.60
2018,08,07,13,06,20.40
2018,08,07,13,07,20.40
2018,08,07,13,08,20.50
2018,08,07,13,09,20.60
2018,08,07,13,10,20.70
2018,08,07,13,11,20.80
2018,08,07,13,12,20.90
2018,08,07,13,13,21.00
2018,08,07,13,14,21.00
2018,08,07,13,15,21.00
2018,08,07,13,16,21.00
2018,08,07,13,17,21.10
2018,08,07,13,18,21.00
2018,08,07,13,19,21.00
2018,08,07,13,20,20.80
2018,08,07,13,21,20.60
2018,08,07,13,22,20.40
2018,08,07,13,23,20.20
2018,08,07,13,24,20.20
2018,08,07,13,25,20.20
2018,08,07,13,26,20.30
2018,08,07,13,27,20.30
2018,08,07,13,28,20.30
2018,08,07,13,29,20.30
2018,08,07,13,30,20.20
2018,08,07,13,31,20.10
2018,08,07,13,32,20.00
2018,08,07,13,33,19.90
2018,08,07,13,34,19.80
2018,08,07,13,35,19.80
2018,08,07,13,36,19.70
2018,08,07,13,37,19.70
2018,08,07,13,38,19.80
2018,08,07,13,39,19.90
2018,08,07,13,40,20.00
2018,08,07,13,41,20.10
2018,08,07,13,42,20.10
2018,08,07,13,43,20.10
2018,08,07,13,44,20.20
2018,08,07,13,45,20.20
2018,08,07,13,46,20.20
2018,08,07,13,47,20.20
2018,08,07,13,48,20.20
2018,08,07,13,49,20.20
2018,08,07,13,50,20.30
2018,08,07,13,51,20.40
2018,08,07,13,52,20.40
2018,08,07,13,53,20.50
2018,08,07,13,54,20.50
2018,08,07,13,55,20.60
2018,08,07,13,56,20.60
2018,08,07,13,57,20.70
2018,08,07,13,58,20.70
2018,08,07,13,59,20.60
2018,08,07,14,00,20.60
2018,08,07,14,01,20.60
2018,08,07,14,02,20.60
2018,08,07,14,03,20.70
2018,08,07,14,04,20.70
2018,08,07,14,05,20.70
2018,08,07,14,06,20.80
2018,08,07,14,07,20.90
2018,08,07,14,08,20.90
2018,08,07,14,09,21.00
2018,08,07,14,10,20.90
2018,08,07,14,11,20.90
2018,08,07,14,12,20.90
2018,08,07,14,13,20.90
2018,08,07,14,14,20.90
2018,08,07,14,15,20.90
2018,08,07,14,16,20.90
2018,08,07,14,17,20.90
2018,08,07,14,18,20.90
2018,08,07,14,19,21.00
2018,08,07,14,20,21.10
2018,08,07,14,21,21.20
2018,08,07,14,22,21.30
2018,08,07,14,23,21.40
2018,08,07,14,24,21.60
2018,08,07,14,25,21.80
2018,08,07,14,26,21.90
2018,08,07,14,27,22.00
2018,08,07,14,28,22.10
2018,08,07,14,29,22.20
2018,08,07,14,30,22.30
2018,08,07,14,31,22.50
2018,08,07,14,32,22.50
2018,08,07,14,33,22.60
2018,08,07,14,34,22.60
2018,08,07,14,35,22.70
2018,08,07,14,36,22.80
2018,08,07,14,37,22.90
2018,08,07,14,38,22.90
2018,08,07,14,39,22.80
2018,08,07,14,40,22.70
2018,08,07,14,41,22.60
2018,08,07,14,42,22.60
2018,08,07,14,43,22.50
2018,08,07,14,44,22.40
2018,08,07,14,45,22.40
2018,08,07,14,46,22.30
2018,08,07,14,47,22.30
2018,08,07,14,48,22.30
2018,08,07,14,49,22.20
2018,08,07,14,50,22.20
2018,08,07,14,51,22.20
2018,08,07,14,52,22.20
2018,08,07,14,53,22.20
2018,08,07,14,54,22.30
2018,08,07,14,55,22.30
2018,08,07,14,56,22.30
2018,08,07,14,57,22.40
2018,08,07,14,58,22.40
2018,08,07,14,59,22.50
2018,08,07,15,00,22.60
2018,08,07,15,01,22.70
2018,08,07,15,02,22.80
2018,08,07,15,03,22.80
2018,08,07,15,04,22.90
2018,08,07,15,05,22.90
2018,08,07,15,06,23.00
2018,08,07,15,07,23.00
2018,08,07,15,08,23.10
2018,08,07,15,09,23.10
2018,08,07,15,10,23.10
2018,08,07,15,11,23.10
2018,08,07,15,12,23.10
2018,08,07,15,13,23.10
2018,08,07,15,14,23.00
2018,08,07,15,15,22.90
2018,08,07,15,16,22.80
2018,08,07,15,17,22.60
2018,08,07,15,18,22.40
2018,08,07,15,19,22.30
2018,08,07,15,20,22.20
2018,08,07,15,21,22.00
2018,08,07,15,22,21.90
2018,08,07,15,23,21.80
2018,08,07,15,24,21.70
2018,08,07,15,25,21.70
2018,08,07,15,26,21.70
2018,08,07,15,27,21.70
2018,08,07,15,28,21.70
2018,08,07,15,29,21.70
2018,08,07,15,30,21.70
2018,08,07,15,31,21.80
2018,08,07,15,32,21.90
2018,08,07,15,33,22.00
2018,08,07,15,34,22.10
2018,08,07,15,35,22.20
2018,08,07,15,36,22.20
2018,08,07,15,37,22.10
2018,08,07,15,38,22.10
2018,08,07,15,39,22.10
2018,08,07,15,40,22.10
2018,08,07,15,41,22.10
2018,08,07,15,42,22.30
2018,08,07,15,43,22.40
2018,08,07,15,44,22.40
2018,08,07,15,45,22.40
2018,08,07,15,46,22.40
2018,08,07,15,47,22.30
2018,08,07,15,48,22.20
2018,08,07,15,49,22.10
2018,08,07,15,50,22.00
2018,08,07,15,51,21.90
2018,08,07,15,52,21.90
2018,08,07,15,53,21.90
2018,08,07,15,54,21.80
2018,08,07,15,55,21.90
2018,08,07,15,56,21.90
2018,08,07,15,57,22.00
2018,08,07,15,58,22.00
2018,08,07,15,59,22.10
2018,08,07,16,00,22.30
2018,08,07,16,01,22.40
2018,08,07,16,02,22.60
2018,08,07,16,03,22.90
2018,08,07,16,04,23.10
2018,08,07,16,05,23.20
2018,08,07,16,06,23.50
2018,08,07,16,07,23.70
2018,08,07,16,08,24.00
2018,08,07,16,09,24.20
2018,08,07,16,10,24.30
2018,08,07,16,11,24.30
2018,08,07,16,12,24.40
2018,08,07,16,13,24.40
2018,08,07,16,14,24.40
2018,08,07,16,15,24.50
2018,08,07,16,16,24.50
2018,08,07,16,17,24.60
2018,08,07,16,18,24.80
2018,08,07,16,19,24.90
2018,08,07,16,20,25.00
2018,08,07,16,21,25.00
2018,08,07,16,22,25.10
2018,08,07,16,23,25.10
2018,08,07,16,24,25.10
2018,08,07,16,25,25.00
2018,08,07,16,26,24.90
2018,08,07,16,27,24.90
2018,08,07,16,28,24.80
2018,08,07,16,29,24.70
2018,08,07,16,30,24.70
2018,08,07,16,31,24.60
2018,08,07,16,32,24.60
2018,08,07,16,33,24.60
2018,08,07,16,34,24.60
2018,08,07,16,35,24.60
2018,08,07,16,36,24.50
2018,08,07,16,37,24.50
2018,08,07,16,38,24.40
2018,08,07,16,39,24.40
2018,08,07,16,40,24.40
2018,08,07,16,41,24.40
2018,08,07,16,42,24.40
2018,08,07,16,43,24.40
2018,08,07,16,44,24.50
2018,08,07,16,45,24.50
2018,08,07,16,46,24.60
2018,08,07,16,47,24.70
2018,08,07,16,48,24.70
2018,08,07,16,49,24.80
2018,08,07,16,50,24.90
2018,08,07,16,51,25.00
2018,08,07,16,52,25.00
2018,08,07,16,53,25.10
2018,08,07,16,54,25.20
2018,08,07,16,55,25.20
2018,08,07,16,56,25.20
2018,08,07,16,57,25.20
2018,08,07,16,58,25.20
2018,08,07,16,59,25.20
2018,08,07,17,00,25.30
2018,08,07,17,01,25.40
2018,08,07,17,02,25.50
2018,08,07,17,03,25.60
2018,08,07,17,04,25.70
2018,08,07,17,05,25.70
2018,08,07,17,06,25.60
2018,08,07,17,07,25.40
2018,08,07,17,08,25.20
2018,08,07,17,09,25.00
2018,08,07,17,10,24.90
2018,08,07,17,11,24.70
2018,08,07,17,12,24.60
2018,08,07,17,13,24.40
2018,08,07,17,14,24.30
2018,08,07,17,15,24.10
2018,08,07,17,16,24.00
2018,08,07,17,17,23.90
2018,08,07,17,18,23.80
2018,08,07,17,19,23.80